�v������,���r���O(���x),�����t���O,���r���O(���x),�����t���O,��1(���x),�����t���O,��1(���x),�����t���O,�O�C���x,�����t���O,�O�C���x,�����t���O,�������x,�����t���O,�C�ۑ�(���x),�����t���O,�C�ۑ�(���x),�����t���O
6/1/2004 0:00,27.4,0,56,0,28.6,0,60,0,21.6,0,59,0,22,0,18.9,0,76.8,0
6/1/2004 0:15,27.4,0,56,0,28.6,0,59,0,22,0,57,0,22,0,18.8,0,78.6,0
6/1/2004 0:30,27.3,0,57,0,28.6,0,59,0,21.2,0,58,0,22.1,0,18.7,0,80.3,0
6/1/2004 0:45,27.3,0,56,0,28.7,0,60,0,21.2,0,56,0,22.1,0,18.6,0,82.1,0
6/1/2004 1:00,27.3,0,56,0,28.7,0,61,0,20.8,0,57,0,22.2,0,18.5,0,83.8,0
6/1/2004 1:15,27.2,0,56,0,28.7,0,61,0,21.2,0,57,0,22.2,0,18.4,0,83.6,0
6/1/2004 1:30,27.2,0,56,0,28.7,0,62,0,21.2,0,57,0,22.3,0,18.3,0,83.3,0
6/1/2004 1:45,27.2,0,56,0,28.7,0,62,0,21.2,0,58,0,22.4,0,18.2,0,83.1,0
6/1/2004 2:00,27.2,0,56,0,28.6,0,62,0,21.4,0,55,0,22.4,0,18.1,0,82.8,0
6/1/2004 2:15,27.2,0,56,0,28.6,0,62,0,21.3,0,55,0,22.5,0,18,0,83.1,0
6/1/2004 2:30,27.1,0,57,0,28.6,0,61,0,21.5,0,56,0,22.5,0,18,0,83.3,0
6/1/2004 2:45,27.1,0,56,0,28.6,0,62,0,21.5,0,55,0,22.5,0,17.9,0,83.6,0
6/1/2004 3:00,27.1,0,57,0,28.6,0,62,0,20.8,0,57,0,22.6,0,17.9,0,83.8,0
6/1/2004 3:15,27,0,57,0,28.5,0,62,0,21.1,0,57,0,22.7,0,17.9,0,83.8,0
6/1/2004 3:30,27,0,57,0,28.5,0,62,0,20.9,0,56,0,22.7,0,17.9,0,83.8,0
6/1/2004 3:45,26.9,0,57,0,28.4,0,61,0,20.7,0,57,0,22.7,0,17.9,0,83.8,0
6/1/2004 4:00,26.9,0,56,0,28.4,0,61,0,20.3,0,59,0,22.8,0,17.9,0,83.8,0
6/1/2004 4:15,26.9,0,56,0,28.4,0,61,0,20.6,0,60,0,22.8,0,17.7,0,85.1,0
6/1/2004 4:30,26.8,0,56,0,28.3,0,61,0,20.7,0,59,0,22.8,0,17.6,0,86.3,0
6/1/2004 4:45,26.8,0,56,0,28.3,0,61,0,20.3,0,61,0,22.9,0,17.4,0,87.6,0
6/1/2004 5:00,26.7,0,56,0,28.3,0,61,0,19.9,0,61,0,22.9,0,17.3,0,88.8,0
6/1/2004 5:15,26.7,0,56,0,28.3,0,61,0,20.5,0,61,0,22.9,0,17.3,0,88.6,0
6/1/2004 5:30,26.6,0,56,0,28.2,0,61,0,20.8,0,60,0,23,0,17.3,0,88.3,0
6/1/2004 5:45,26.6,0,56,0,28.1,0,61,0,20.1,0,62,0,23,0,17.4,0,88.1,0
6/1/2004 6:00,26.6,0,56,0,28.1,0,61,0,20.4,0,63,0,23.1,0,17.4,0,87.8,0
6/1/2004 6:15,26.5,0,56,0,28.1,0,61,0,20.5,0,61,0,23.1,0,17.4,0,87.8,0
6/1/2004 6:30,26.2,0,55,0,28,0,61,0,20.4,0,62,0,23.1,0,17.4,0,87.8,0
6/1/2004 6:45,25.9,0,55,0,28.1,0,62,0,20.2,0,62,0,23.1,0,17.5,0,87.8,0
6/1/2004 7:00,25.7,0,55,0,27.7,0,54,0,20.3,0,62,0,23.2,0,17.5,0,87.8,0
6/1/2004 7:15,25.6,0,55,0,27.6,0,55,0,19.8,0,64,0,23.2,0,17.5,0,87.6,0
6/1/2004 7:30,25.4,0,55,0,27.5,0,56,0,20.6,0,61,0,23.2,0,17.4,0,87.3,0
6/1/2004 7:45,25.4,0,55,0,27.4,0,56,0,20.2,0,62,0,23.2,0,17.4,0,87.1,0
6/1/2004 8:00,25.3,0,55,0,27.2,0,54,0,19.7,0,63,0,23.2,0,17.4,0,86.8,0
6/1/2004 8:15,25.2,0,56,0,27.1,0,54,0,20.3,0,62,0,23.3,0,17.3,0,87.3,0
6/1/2004 8:30,25.1,0,57,0,27.1,0,54,0,20,0,65,0,23.3,0,17.2,0,87.8,0
6/1/2004 8:45,25.1,0,57,0,26.9,0,54,0,19.7,0,65,0,23.3,0,17.2,0,88.3,0
6/1/2004 9:00,25,0,57,0,26.9,0,54,0,19.5,0,65,0,21.1,0,17.1,0,88.8,0
6/1/2004 9:15,25,0,57,0,26.8,0,54,0,19.6,0,65,0,21.2,0,17,0,88.3,0
6/1/2004 9:30,24.9,0,57,0,26.7,0,54,0,19.8,0,65,0,21.2,0,17,0,87.8,0
6/1/2004 9:45,24.9,0,57,0,26.7,0,53,0,19.7,0,67,0,21.3,0,16.9,0,87.3,0
6/1/2004 10:00,24.8,0,57,0,26.6,0,53,0,19.6,0,67,0,20.5,0,16.9,0,86.8,0
6/1/2004 10:15,24.7,0,56,0,26.6,0,53,0,20,0,65,0,20.6,0,16.9,0,86.3,0
6/1/2004 10:30,24.7,0,56,0,26.5,0,53,0,19.7,0,64,0,20.7,0,16.9,0,85.8,0
6/1/2004 10:45,24.6,0,57,0,26.5,0,53,0,19.8,0,65,0,20.6,0,17,0,85.3,0
6/1/2004 11:00,24.6,0,57,0,26.5,0,53,0,19.5,0,64,0,20.7,0,17,0,84.8,0
6/1/2004 11:15,24.5,0,57,0,26.3,0,53,0,19.5,0,65,0,20.3,0,16.9,0,84.6,0
6/1/2004 11:30,24.5,0,57,0,26.3,0,53,0,19.5,0,64,0,19.6,0,16.8,0,84.3,0
6/1/2004 11:45,24.5,0,57,0,26.2,0,53,0,19,0,63,0,19.7,0,16.7,0,84.1,0
6/1/2004 12:00,24.5,0,57,0,26.2,0,53,0,19.4,0,62,0,19.8,0,16.6,0,83.8,0
6/1/2004 12:15,24.5,0,57,0,26.2,0,53,0,18.9,0,61,0,20,0,16.6,0,83.3,0
6/1/2004 12:30,24.5,0,57,0,26.1,0,53,0,19.9,0,61,0,20,0,16.6,0,82.8,0
6/1/2004 12:45,24.4,0,56,0,26.1,0,53,0,19.5,0,61,0,20,0,16.6,0,82.3,0
6/1/2004 13:00,24.3,0,56,0,26.1,0,53,0,19.7,0,60,0,20.2,0,16.6,0,81.8,0
6/1/2004 13:15,24.3,0,56,0,26,0,53,0,19.6,0,59,0,20.2,0,16.7,0,81.3,0
6/1/2004 13:30,24.2,0,56,0,26.2,0,52,0,19.6,0,58,0,20.2,0,16.7,0,80.8,0
6/1/2004 13:45,24.2,0,56,0,26,0,53,0,19.4,0,58,0,20.1,0,16.8,0,80.3,0
6/1/2004 14:00,24.1,0,57,0,25.9,0,53,0,19.6,0,58,0,20.3,0,16.9,0,79.8,0
6/1/2004 14:15,24.1,0,56,0,25.9,0,53,0,19.1,0,58,0,20.3,0,17,0,79.3,0
6/1/2004 14:30,24.1,0,56,0,25.9,0,52,0,20,0,56,0,20.4,0,17.1,0,78.8,0
6/1/2004 14:45,24,0,55,0,25.9,0,52,0,19.8,0,54,0,20.5,0,17.2,0,78.3,0
6/1/2004 15:00,23.7,0,55,0,25.9,0,52,0,19.9,0,55,0,20.6,0,17.3,0,77.8,0
6/1/2004 15:15,23.9,0,56,0,25.8,0,51,0,19.8,0,54,0,20.8,0,17.4,0,77.1,0
6/1/2004 15:30,24,0,56,0,25.8,0,51,0,19.9,0,54,0,20.2,0,17.5,0,76.3,0
6/1/2004 15:45,24.1,0,56,0,25.8,0,51,0,19.6,0,53,0,20.2,0,17.6,0,75.6,0
6/1/2004 16:00,24.1,0,56,0,25.8,0,52,0,19.7,0,55,0,20.4,0,17.7,0,74.8,0
6/1/2004 16:15,24,0,56,0,25.7,0,52,0,19.4,0,55,0,20.6,0,17.7,0,75.1,0
6/1/2004 16:30,23.9,0,55,0,25.7,0,52,0,20.1,0,55,0,20.7,0,17.7,0,75.3,0
6/1/2004 16:45,23.9,0,56,0,25.6,0,52,0,19.8,0,52,0,20.8,0,17.7,0,75.6,0
6/1/2004 17:00,23.9,0,56,0,25.6,0,52,0,20.1,0,53,0,20.8,0,17.7,0,75.8,0
6/1/2004 17:15,24,0,56,0,25.6,0,52,0,20.2,0,54,0,20.9,0,17.7,0,75.8,0
6/1/2004 17:30,24,0,57,0,25.5,0,52,0,20.3,0,53,0,21,0,17.7,0,75.8,0
6/1/2004 17:45,24,0,56,0,25.5,0,52,0,19.9,0,54,0,21.1,0,17.7,0,75.8,0
6/1/2004 18:00,24,0,56,0,25.5,0,52,0,20.1,0,55,0,21.2,0,17.7,0,75.8,0
6/1/2004 18:15,24.1,0,56,0,25.4,0,52,0,20.2,0,54,0,21.3,0,17.7,0,76.3,0
6/1/2004 18:30,24.1,0,56,0,25.4,0,52,0,19.5,0,56,0,21.4,0,17.7,0,76.8,0
6/1/2004 18:45,24,0,56,0,25.3,0,52,0,20,0,55,0,21.5,0,17.7,0,77.3,0
6/1/2004 19:00,24,0,57,0,25.3,0,53,0,20,0,56,0,20.7,0,17.7,0,77.8,0
6/1/2004 19:15,24,0,56,0,25.2,0,53,0,19.6,0,54,0,20.6,0,17.8,0,77.1,0
6/1/2004 19:30,23.9,0,56,0,25.2,0,53,0,19.6,0,56,0,20.7,0,17.8,0,76.3,0
6/1/2004 19:45,24,0,57,0,25.2,0,53,0,19.7,0,58,0,20.9,0,17.9,0,75.6,0
6/1/2004 20:00,24,0,57,0,25.1,0,53,0,18.6,0,60,0,20.9,0,18,0,74.8,0
6/1/2004 20:15,24,0,58,0,25.1,0,53,0,18.6,0,63,0,21,0,17.9,0,75.3,0
6/1/2004 20:30,24.1,0,58,0,25,0,53,0,18.6,0,64,0,21.2,0,17.8,0,75.8,0
6/1/2004 20:45,24.2,0,58,0,25,0,53,0,18.8,0,64,0,21.3,0,17.7,0,76.3,0
6/1/2004 21:00,24.3,0,58,0,25,0,53,0,18.5,0,65,0,19.9,0,17.6,0,76.8,0
6/1/2004 21:15,24.3,0,58,0,24.9,0,54,0,18.8,0,65,0,20,0,17.6,0,77.1,0
6/1/2004 21:30,24.2,0,58,0,24.9,0,54,0,18.5,0,64,0,20.1,0,17.6,0,77.3,0
6/1/2004 21:45,24.2,0,58,0,24.9,0,55,0,18.5,0,62,0,20.2,0,17.7,0,77.6,0
6/1/2004 22:00,24.1,0,57,0,24.9,0,55,0,18.4,0,64,0,20.3,0,17.7,0,77.8,0
6/1/2004 22:15,23.9,0,57,0,24.9,0,55,0,18.4,0,65,0,20.5,0,17.6,0,78.1,0
6/1/2004 22:30,23.9,0,58,0,25,0,56,0,18,0,65,0,20.6,0,17.4,0,78.3,0
6/1/2004 22:45,24,0,58,0,25,0,57,0,18,0,67,0,20.6,0,17.3,0,78.6,0
6/1/2004 23:00,24.1,0,58,0,25.1,0,57,0,18.3,0,68,0,20.7,0,17.2,0,78.8,0
6/1/2004 23:15,24.1,0,58,0,25.2,0,59,0,18,0,66,0,20.8,0,17,0,79.6,0
6/1/2004 23:30,24,0,58,0,25.2,0,59,0,18,0,67,0,20.9,0,16.8,0,80.3,0
6/1/2004 23:45,24,0,57,0,25.3,0,60,0,17.6,0,67,0,21,0,16.7,0,81.1,0
6/2/2004 0:00,23.9,0,57,0,25.3,0,60,0,17.8,0,68,0,20,0,16.5,0,81.8,0
6/2/2004 0:15,23.7,0,57,0,25.3,0,61,0,17.9,0,69,0,20.1,0,16.5,0,82.1,0
6/2/2004 0:30,23.8,0,58,0,25.3,0,61,0,17.8,0,68,0,20.1,0,16.4,0,82.3,0
6/2/2004 0:45,23.7,0,58,0,25.3,0,62,0,17.7,0,69,0,20.2,0,16.4,0,82.6,0
6/2/2004 1:00,23.8,0,58,0,25.3,0,61,0,17.5,0,69,0,20.3,0,16.4,0,82.8,0
6/2/2004 1:15,23.8,0,58,0,25.3,0,61,0,17.6,0,70,0,20.1,0,16.3,0,82.6,0
6/2/2004 1:30,23.8,0,58,0,25.3,0,61,0,17.7,0,70,0,20.1,0,16.2,0,82.3,0
6/2/2004 1:45,23.8,0,58,0,25.3,0,61,0,17.6,0,70,0,20.3,0,16.2,0,82.1,0
6/2/2004 2:00,23.8,0,58,0,25.3,0,61,0,18.3,0,70,0,20.3,0,16.1,0,81.8,0
6/2/2004 2:15,23.8,0,57,0,25.2,0,60,0,17.7,0,69,0,20.5,0,16.1,0,81.8,0
6/2/2004 2:30,23.7,0,57,0,25.2,0,60,0,17.8,0,69,0,20.5,0,16.1,0,81.8,0
6/2/2004 2:45,23.6,0,57,0,25.2,0,60,0,18,0,68,0,20.7,0,16.2,0,81.8,0
6/2/2004 3:00,23.6,0,57,0,25.2,0,60,0,17.9,0,67,0,20.6,0,16.2,0,81.8,0
6/2/2004 3:15,23.5,0,57,0,25.2,0,60,0,18.4,0,66,0,20.8,0,16.2,0,82.3,0
6/2/2004 3:30,23.5,0,57,0,25.2,0,60,0,18.1,0,67,0,20.8,0,16.1,0,82.8,0
6/2/2004 3:45,23.5,0,57,0,25.1,0,60,0,17.9,0,65,0,21,0,16.1,0,83.3,0
6/2/2004 4:00,23.5,0,57,0,25.1,0,60,0,17.9,0,65,0,21,0,16.1,0,83.8,0
6/2/2004 4:15,23.5,0,57,0,25,0,59,0,18,0,67,0,20.3,0,16.2,0,83.8,0
6/2/2004 4:30,23.5,0,57,0,24.9,0,59,0,17.5,0,67,0,20.4,0,16.2,0,83.8,0
6/2/2004 4:45,23.5,0,57,0,24.9,0,59,0,17.6,0,64,0,20.5,0,16.3,0,83.8,0
6/2/2004 5:00,23.4,0,56,0,24.8,0,59,0,17.7,0,61,0,20.7,0,16.4,0,83.8,0
6/2/2004 5:15,23.5,0,56,0,24.8,0,58,0,17.1,0,60,0,20.7,0,16.4,0,82.6,0
6/2/2004 5:30,23.4,0,56,0,24.7,0,58,0,17.6,0,60,0,20.7,0,16.4,0,81.3,0
6/2/2004 5:45,23.4,0,56,0,24.7,0,58,0,16.9,0,62,0,20.9,0,16.4,0,80.1,0
6/2/2004 6:00,23.3,0,56,0,24.6,0,58,0,16.8,0,62,0,21,0,16.4,0,78.8,0
6/2/2004 6:15,23.2,0,56,0,24.6,0,58,0,16.8,0,63,0,21,0,16.7,0,77.6,0
6/2/2004 6:30,23.1,0,55,0,24.6,0,58,0,17,0,63,0,21.2,0,17,0,76.3,0
6/2/2004 6:45,23,0,55,0,24.7,0,55,0,17.1,0,60,0,21.2,0,17.3,0,75.1,0
6/2/2004 7:00,23,0,55,0,24.5,0,55,0,17.2,0,57,0,21.3,0,17.6,0,73.8,0
6/2/2004 7:15,23.1,0,55,0,24.4,0,55,0,17.7,0,55,0,21.4,0,17.8,0,72.3,0
6/2/2004 7:30,23.1,0,54,0,24.4,0,55,0,17.9,0,52,0,19.8,0,18.1,0,70.8,0
6/2/2004 7:45,23.2,0,53,0,24.4,0,54,0,18.5,0,47,0,20,0,18.3,0,69.3,0
6/2/2004 8:00,23.1,0,53,0,24.3,0,53,0,18.3,0,46,0,20,0,18.6,0,67.8,0
6/2/2004 8:15,23.2,0,52,0,24.3,0,52,0,19.1,0,44,0,20.1,0,19,0,64.8,0
6/2/2004 8:30,23.2,0,52,0,24.3,0,52,0,19.4,0,43,0,20.2,0,19.3,0,61.8,0
6/2/2004 8:45,23.3,0,52,0,24.6,0,50,0,19.5,0,43,0,20.2,0,19.7,0,58.8,0
6/2/2004 9:00,23.4,0,51,0,24.7,0,49,0,20.1,0,41,0,20.4,0,20.1,0,55.8,0
6/2/2004 9:15,23.5,0,51,0,24.8,0,49,0,20.6,0,41,0,20.5,0,20.4,0,56,0
6/2/2004 9:30,23.6,0,52,0,24.9,0,48,0,20.6,0,40,0,20.7,0,20.7,0,56.3,0
6/2/2004 9:45,23.7,0,51,0,25.1,0,48,0,20.8,0,41,0,20.8,0,21,0,56.5,0
6/2/2004 10:00,24,0,50,0,25.4,0,45,0,21,0,39,0,20.8,0,21.3,0,56.8,0
6/2/2004 10:15,24.1,0,50,0,25.7,0,44,0,21.7,0,37,0,20.9,0,21.5,0,54.8,0
6/2/2004 10:30,24.2,0,49,0,25.9,0,44,0,22,0,35,0,21,0,21.7,0,52.8,0
6/2/2004 10:45,24.3,0,48,0,26.1,0,42,0,22.3,0,32,0,21.1,0,21.9,0,50.8,0
6/2/2004 11:00,24.3,0,48,0,26,0,39,0,22.5,0,30,0,20.4,0,22.1,0,48.8,0
6/2/2004 11:15,24.1,0,38,0,25.9,0,38,0,23.3,0,27,0,20.4,0,22.1,0,45.8,0
6/2/2004 11:30,24,0,33,0,25.7,0,35,0,23.1,0,27,0,20.5,0,22.1,0,42.8,0
6/2/2004 11:45,24.4,0,31,0,25.9,0,33,0,23.7,0,22,0,20.6,0,22.2,0,39.8,0
6/2/2004 12:00,24.5,0,31,0,26.1,0,29,0,23.8,0,22,0,19.9,0,22.2,0,36.8,0
6/2/2004 12:15,24.6,0,31,0,26.1,0,31,0,24,0,23,0,20,0,22.5,0,36.3,0
6/2/2004 12:30,24.6,0,29,0,26.1,0,30,0,24,0,22,0,19.6,0,22.8,0,35.8,0
6/2/2004 12:45,24.5,0,29,0,26,0,30,0,24.1,0,22,0,19.6,0,23.2,0,35.3,0
6/2/2004 13:00,24.6,0,30,0,26.1,0,29,0,24.2,0,23,0,19.8,0,23.5,0,34.8,0
6/2/2004 13:15,24.7,0,29,0,26.2,0,29,0,24.9,0,22,0,19.9,0,23.5,0,35.5,0
6/2/2004 13:30,24.8,0,30,0,26,0,30,0,23.9,0,23,0,20,0,23.5,0,36.3,0
6/2/2004 13:45,24.8,0,30,0,26,0,29,0,24.5,0,22,0,20.1,0,23.6,0,37,0
6/2/2004 14:00,25,0,30,0,26,0,30,0,25,0,22,0,20.2,0,23.6,0,37.8,0
6/2/2004 14:15,25,0,30,0,25.8,0,29,0,24.8,0,21,0,20.4,0,23.5,0,37.3,0
6/2/2004 14:30,24.9,0,28,0,25.7,0,28,0,24.7,0,21,0,20.6,0,23.5,0,36.8,0
6/2/2004 14:45,25.1,0,28,0,25.9,0,29,0,25.4,0,21,0,20.7,0,23.4,0,36.3,0
6/2/2004 15:00,25,0,27,0,25.8,0,28,0,24.6,0,21,0,20.8,0,23.4,0,35.8,0
6/2/2004 15:15,25.2,0,28,0,25.9,0,29,0,24.8,0,21,0,20.8,0,23.4,0,36.3,0
6/2/2004 15:30,25.3,0,27,0,25.8,0,28,0,25.1,0,19,0,20.4,0,23.3,0,36.8,0
6/2/2004 15:45,25.3,0,27,0,25.8,0,28,0,25,0,19,0,20.6,0,23.3,0,37.3,0
6/2/2004 16:00,25.3,0,26,0,25.9,0,29,0,25.4,0,19,0,20.6,0,23.3,0,37.8,0
6/2/2004 16:15,25.2,0,24,0,26.1,0,28,0,25.3,0,18,0,20.7,0,23.2,0,38,0
6/2/2004 16:30,25.1,0,24,0,26,0,30,0,24.5,0,18,0,20.8,0,23.1,0,38.3,0
6/2/2004 16:45,25.1,0,24,0,25.9,0,27,0,24.4,0,18,0,20.9,0,23,0,38.5,0
6/2/2004 17:00,25.2,0,26,0,25.9,0,28,0,24,0,23,0,21,0,22.9,0,38.8,0
6/2/2004 17:15,25.2,0,30,0,25.7,0,31,0,23.5,0,26,0,20.4,0,22.7,0,38.3,0
6/2/2004 17:30,25.2,0,31,0,25.7,0,32,0,23.3,0,26,0,20.6,0,22.6,0,37.8,0
6/2/2004 17:45,25.1,0,31,0,25.5,0,32,0,23.2,0,26,0,20.7,0,22.4,0,37.3,0
6/2/2004 18:00,25,0,32,0,25.5,0,33,0,23.1,0,27,0,20.8,0,22.3,0,36.8,0
6/2/2004 18:15,24.9,0,32,0,25.5,0,33,0,23.3,0,27,0,19.9,0,21.9,0,41.3,0
6/2/2004 18:30,24.9,0,33,0,25.4,0,34,0,23.1,0,27,0,20,0,21.6,0,45.8,0
6/2/2004 18:45,24.7,0,32,0,25.3,0,33,0,23,0,26,0,20.1,0,21.2,0,50.3,0
6/2/2004 19:00,24.7,0,32,0,25.2,0,33,0,22.7,0,26,0,20.3,0,20.9,0,54.8,0
6/2/2004 19:15,24.6,0,32,0,25.1,0,33,0,22.5,0,26,0,20.1,0,20.7,0,56.8,0
6/2/2004 19:30,24.4,0,33,0,25,0,34,0,22.1,0,30,0,20.2,0,20.5,0,58.8,0
6/2/2004 19:45,24.2,0,36,0,25,0,35,0,22.4,0,32,0,19.9,0,20.3,0,60.8,0
6/2/2004 20:00,24.2,0,39,0,25.1,0,37,0,22.3,0,34,0,20,0,20.1,0,62.8,0
6/2/2004 20:15,24.2,0,39,0,25.1,0,39,0,22.2,0,33,0,20.1,0,20,0,62.5,0
6/2/2004 20:30,24.3,0,39,0,25.2,0,39,0,22.3,0,33,0,20.3,0,19.9,0,62.3,0
6/2/2004 20:45,24.2,0,39,0,25.2,0,40,0,22,0,33,0,20.4,0,19.9,0,62,0
6/2/2004 21:00,24,0,39,0,25.2,0,40,0,21.9,0,34,0,20.1,0,19.8,0,61.8,0
6/2/2004 21:15,24.2,0,40,0,25.2,0,40,0,21.9,0,34,0,19.8,0,19.6,0,61.5,0
6/2/2004 21:30,24.2,0,40,0,25.2,0,40,0,21.5,0,35,0,19.9,0,19.4,0,61.3,0
6/2/2004 21:45,24.3,0,41,0,25.2,0,42,0,21.2,0,36,0,19.6,0,19.3,0,61,0
6/2/2004 22:00,24.2,0,41,0,25.2,0,42,0,20.6,0,38,0,19.7,0,19.1,0,60.8,0
6/2/2004 22:15,24.2,0,41,0,25.3,0,43,0,20.1,0,38,0,19.6,0,19.2,0,59.8,0
6/2/2004 22:30,24.2,0,42,0,25.3,0,44,0,20.2,0,36,0,19.6,0,19.3,0,58.8,0
6/2/2004 22:45,24.1,0,43,0,25.5,0,45,0,19.9,0,37,0,19.7,0,19.5,0,57.8,0
6/2/2004 23:00,24.1,0,43,0,25.5,0,45,0,19.9,0,38,0,19.8,0,19.6,0,56.8,0
6/2/2004 23:15,24.2,0,44,0,25.6,0,45,0,19.8,0,39,0,20,0,19.4,0,57.5,0
6/2/2004 23:30,24.3,0,44,0,25.6,0,46,0,19.8,0,40,0,19.9,0,19.2,0,58.3,0
6/2/2004 23:45,24.3,0,44,0,25.6,0,47,0,19.8,0,40,0,20.1,0,19.1,0,59,0
6/3/2004 0:00,24.4,0,45,0,25.6,0,48,0,19.8,0,41,0,20.1,0,18.9,0,59.8,0
6/3/2004 0:15,24.5,0,45,0,25.6,0,48,0,19.4,0,40,0,20.2,0,18.9,0,59.8,0
6/3/2004 0:30,24.4,0,44,0,25.6,0,48,0,19.6,0,42,0,20.2,0,19,0,59.8,0
6/3/2004 0:45,24.4,0,44,0,25.6,0,49,0,19.7,0,39,0,20.4,0,19,0,59.8,0
6/3/2004 1:00,24.4,0,44,0,25.7,0,49,0,20,0,39,0,20.5,0,19.1,0,59.8,0
6/3/2004 1:15,24.3,0,46,0,25.7,0,50,0,19.3,0,38,0,20.5,0,19,0,62.1,0
6/3/2004 1:30,24.4,0,46,0,25.7,0,50,0,19.6,0,40,0,20.5,0,18.8,0,64.3,0
6/3/2004 1:45,24.4,0,46,0,25.7,0,50,0,19.8,0,39,0,20.6,0,18.7,0,66.6,0
6/3/2004 2:00,24.4,0,46,0,25.7,0,50,0,19,0,39,0,20.7,0,18.6,0,68.8,0
6/3/2004 2:15,24.4,0,46,0,25.7,0,50,0,18.9,0,39,0,20.7,0,18.4,0,70.3,0
6/3/2004 2:30,24.3,0,46,0,25.7,0,50,0,19.3,0,39,0,20.9,0,18.3,0,71.8,0
6/3/2004 2:45,24.3,0,46,0,25.7,0,51,0,19.5,0,33,0,20.9,0,18.1,0,73.3,0
6/3/2004 3:00,24.3,0,46,0,25.7,0,51,0,19.7,0,34,0,21,0,18,0,74.8,0
6/3/2004 3:15,24.3,0,46,0,25.6,0,51,0,19,0,41,0,21,0,18.1,0,74.3,0
6/3/2004 3:30,24.2,0,46,0,25.6,0,51,0,19.6,0,41,0,21.1,0,18.2,0,73.8,0
6/3/2004 3:45,24.2,0,46,0,25.6,0,51,0,18.7,0,44,0,21.1,0,18.4,0,73.3,0
6/3/2004 4:00,24.2,0,46,0,25.6,0,51,0,18.8,0,43,0,21.2,0,18.5,0,72.8,0
6/3/2004 4:15,24.2,0,46,0,25.6,0,51,0,18.9,0,42,0,21.2,0,18.3,0,69.6,0
6/3/2004 4:30,24.1,0,46,0,25.6,0,51,0,19,0,42,0,21.3,0,18.2,0,66.3,0
6/3/2004 4:45,23.9,0,45,0,25.5,0,51,0,18.6,0,41,0,21.3,0,18,0,63.1,0
6/3/2004 5:00,23.7,0,44,0,25.5,0,51,0,18.4,0,40,0,21.4,0,17.9,0,59.8,0
6/3/2004 5:15,23.5,0,44,0,25.4,0,51,0,19,0,41,0,21.4,0,17.9,0,59.5,0
6/3/2004 5:30,23.5,0,44,0,25.4,0,52,0,18.6,0,43,0,21.5,0,17.8,0,59.3,0
6/3/2004 5:45,23.4,0,45,0,25.4,0,52,0,18.1,0,44,0,21.5,0,17.8,0,59,0
6/3/2004 6:00,23.3,0,45,0,25.4,0,52,0,18.3,0,43,0,21.5,0,17.8,0,58.8,0
6/3/2004 6:15,23.3,0,45,0,25.4,0,53,0,18.1,0,43,0,21.6,0,17.9,0,58,0
6/3/2004 6:30,23.2,0,45,0,25.4,0,53,0,18.6,0,41,0,21.7,0,18,0,57.3,0
6/3/2004 6:45,23.2,0,44,0,25.1,0,45,0,18.7,0,38,0,21.7,0,18.2,0,56.5,0
6/3/2004 7:00,23.2,0,44,0,24.9,0,44,0,18.8,0,38,0,21.8,0,18.3,0,55.8,0
6/3/2004 7:15,23.1,0,43,0,24.8,0,43,0,19,0,39,0,21.8,0,18.6,0,54.5,0
6/3/2004 7:30,23.1,0,43,0,24.8,0,42,0,19.4,0,38,0,21.4,0,19,0,53.3,0
6/3/2004 7:45,23.2,0,43,0,24.8,0,43,0,20.3,0,38,0,19.5,0,19.3,0,52,0
6/3/2004 8:00,23.2,0,43,0,24.7,0,44,0,19.8,0,36,0,19.6,0,19.7,0,50.8,0
6/3/2004 8:15,23.4,0,43,0,24.7,0,44,0,20.5,0,35,0,19.6,0,20.1,0,49,0
6/3/2004 8:30,23.5,0,43,0,24.8,0,45,0,20.8,0,34,0,19.9,0,20.5,0,47.3,0
6/3/2004 8:45,23.6,0,43,0,24.8,0,45,0,21.1,0,30,0,19.9,0,21,0,45.5,0
6/3/2004 9:00,23.7,0,43,0,24.9,0,45,0,21.5,0,29,0,20,0,21.4,0,43.8,0
6/3/2004 9:15,23.7,0,42,0,24.9,0,44,0,21.3,0,30,0,20,0,21.4,0,42.8,0
6/3/2004 9:30,23.7,0,41,0,25,0,44,0,21.8,0,30,0,20.1,0,21.5,0,41.8,0
6/3/2004 9:45,23.8,0,41,0,25.1,0,45,0,22.5,0,26,0,20.3,0,21.5,0,40.8,0
6/3/2004 10:00,23.9,0,40,0,25.1,0,39,0,22.3,0,25,0,20.4,0,21.6,0,39.8,0
6/3/2004 10:15,23.9,0,39,0,25.2,0,36,0,22.5,0,25,0,20.5,0,21.8,0,39.3,0
6/3/2004 10:30,24.1,0,38,0,25.3,0,35,0,22.7,0,24,0,20.5,0,21.9,0,38.8,0
6/3/2004 10:45,24.1,0,39,0,25.4,0,33,0,23.1,0,23,0,20.6,0,22.1,0,38.3,0
6/3/2004 11:00,24.3,0,39,0,25.5,0,34,0,23.5,0,22,0,20.8,0,22.3,0,37.8,0
6/3/2004 11:15,24.4,0,37,0,25.5,0,32,0,23.8,0,20,0,20.9,0,22.4,0,37.5,0
6/3/2004 11:30,24.5,0,36,0,25.5,0,31,0,23.8,0,22,0,21,0,22.4,0,37.3,0
6/3/2004 11:45,24.6,0,37,0,25.7,0,31,0,23.9,0,21,0,21.1,0,22.5,0,37,0
6/3/2004 12:00,24.7,0,36,0,25.7,0,31,0,24,0,20,0,20.2,0,22.6,0,36.8,0
6/3/2004 12:15,24.8,0,36,0,25.7,0,29,0,24.1,0,20,0,20.2,0,22.7,0,36,0
6/3/2004 12:30,25,0,36,0,25.8,0,29,0,24.4,0,21,0,20.2,0,22.8,0,35.3,0
6/3/2004 12:45,25.1,0,37,0,25.9,0,30,0,24.6,0,20,0,20.4,0,23,0,34.5,0
6/3/2004 13:00,25.2,0,36,0,26,0,30,0,24,0,19,0,20.5,0,23.1,0,33.8,0
6/3/2004 13:15,25.2,0,35,0,26.1,0,29,0,24.6,0,19,0,20.6,0,23.1,0,34.3,0
6/3/2004 13:30,25.3,0,33,0,26.1,0,28,0,24.3,0,20,0,20.7,0,23.2,0,34.8,0
6/3/2004 13:45,25.3,0,33,0,26.1,0,28,0,24.3,0,18,0,20.8,0,23.2,0,35.3,0
6/3/2004 14:00,25.3,0,32,0,26.2,0,28,0,24.3,0,18,0,20.9,0,23.3,0,35.8,0
6/3/2004 14:15,25.4,0,32,0,26.2,0,29,0,24.4,0,18,0,21,0,23.1,0,35.8,0
6/3/2004 14:30,25.5,0,31,0,26.2,0,28,0,24.1,0,18,0,21.1,0,23,0,35.8,0
6/3/2004 14:45,25.6,0,30,0,26.1,0,26,0,24.8,0,17,0,20.5,0,22.8,0,35.8,0
6/3/2004 15:00,25.7,0,29,0,26.1,0,27,0,24.2,0,16,0,20.5,0,22.7,0,35.8,0
6/3/2004 15:15,25.8,0,29,0,26,0,24,0,24.5,0,16,0,20.6,0,22.5,0,37,0
6/3/2004 15:30,25.8,0,27,0,26.3,0,26,0,24.3,0,16,0,20.7,0,22.4,0,38.3,0
6/3/2004 15:45,26.1,0,27,0,26.2,0,25,0,24.7,0,16,0,20.8,0,22.2,0,39.5,0
6/3/2004 16:00,25.9,0,27,0,27,0,27,0,24.3,0,17,0,20.9,0,22.1,0,40.8,0
6/3/2004 16:15,25.9,0,28,0,27,0,26,0,23.8,0,17,0,20.2,0,22.1,0,39.8,0
6/3/2004 16:30,25.8,0,28,0,27.1,0,27,0,23.5,0,19,0,20.4,0,22,0,38.8,0
6/3/2004 16:45,25.8,0,28,0,27,0,27,0,23.5,0,20,0,20.5,0,22,0,37.8,0
6/3/2004 17:00,25.8,0,28,0,27,0,27,0,24,0,22,0,20.5,0,22,0,36.8,0
6/3/2004 17:15,25.7,0,28,0,26.9,0,28,0,23.5,0,22,0,20.6,0,21.8,0,37.5,0
6/3/2004 17:30,25.4,0,27,0,26.8,0,29,0,23.5,0,22,0,20.8,0,21.5,0,38.3,0
6/3/2004 17:45,25.4,0,27,0,26.8,0,29,0,23.3,0,20,0,20.9,0,21.3,0,39,0
6/3/2004 18:00,25.1,0,27,0,26.7,0,29,0,23,0,23,0,21.1,0,21.1,0,39.8,0
6/3/2004 18:15,24.9,0,27,0,26.6,0,30,0,22.9,0,22,0,21.1,0,20.8,0,40.5,0
6/3/2004 18:30,24.6,0,28,0,26.5,0,31,0,22.3,0,26,0,21.2,0,20.5,0,41.3,0
6/3/2004 18:45,24.4,0,29,0,26.5,0,31,0,22,0,25,0,21.3,0,20.3,0,42,0
6/3/2004 19:00,24.2,0,30,0,26.3,0,31,0,21.2,0,27,0,20.3,0,20,0,42.8,0
6/3/2004 19:15,24,0,30,0,26.2,0,31,0,21.1,0,27,0,20.4,0,19.8,0,43.8,0
6/3/2004 19:30,23.9,0,31,0,26.1,0,30,0,20.6,0,28,0,20.4,0,19.6,0,44.8,0
6/3/2004 19:45,23.7,0,31,0,26.1,0,32,0,20.8,0,29,0,19.9,0,19.5,0,45.8,0
6/3/2004 20:00,23.6,0,35,0,26,0,32,0,20.4,0,32,0,20,0,19.3,0,46.8,0
6/3/2004 20:15,23.4,0,35,0,26,0,33,0,20.1,0,34,0,19.4,0,19.1,0,48.8,0
6/3/2004 20:30,23.1,0,36,0,25.9,0,33,0,20,0,35,0,19.5,0,18.8,0,50.8,0
6/3/2004 20:45,22.9,0,38,0,25.8,0,34,0,19.5,0,37,0,19.6,0,18.6,0,52.8,0
6/3/2004 21:00,23.1,0,39,0,25.7,0,34,0,19.3,0,38,0,19.7,0,18.4,0,54.8,0
6/3/2004 21:15,23.6,0,38,0,25.7,0,34,0,19,0,39,0,19.7,0,18.2,0,55,0
6/3/2004 21:30,23.7,0,39,0,25.7,0,35,0,18.9,0,39,0,19.8,0,18,0,55.3,0
6/3/2004 21:45,23.8,0,39,0,25.7,0,36,0,18.8,0,40,0,19.9,0,17.9,0,55.5,0
6/3/2004 22:00,23.7,0,39,0,25.7,0,36,0,18.5,0,41,0,20,0,17.7,0,55.8,0
6/3/2004 22:15,24,0,39,0,25.7,0,37,0,18.5,0,42,0,19.3,0,17.5,0,57.3,0
6/3/2004 22:30,24.1,0,39,0,25.7,0,37,0,18.2,0,43,0,19.4,0,17.3,0,58.8,0
6/3/2004 22:45,24.1,0,40,0,25.6,0,37,0,18.2,0,42,0,19.5,0,17.2,0,60.3,0
6/3/2004 23:00,24,0,39,0,25.6,0,37,0,18.2,0,43,0,19.6,0,17,0,61.8,0
6/3/2004 23:15,23.9,0,39,0,25.5,0,38,0,17.8,0,44,0,19.7,0,17,0,61,0
6/3/2004 23:30,23.9,0,39,0,25.5,0,39,0,18.1,0,46,0,19.6,0,17.1,0,60.3,0
6/3/2004 23:45,23.7,0,39,0,25.5,0,39,0,18.7,0,40,0,19.7,0,17.1,0,59.5,0
6/4/2004 0:00,23.5,0,39,0,25.5,0,39,0,18.7,0,40,0,19.8,0,17.2,0,58.8,0
6/4/2004 0:15,23.4,0,40,0,25.6,0,40,0,17.5,0,44,0,19.9,0,17.2,0,59,0
6/4/2004 0:30,23.3,0,40,0,25.6,0,41,0,18.1,0,43,0,19.9,0,17.2,0,59.3,0
6/4/2004 0:45,23.4,0,41,0,25.6,0,42,0,17.9,0,43,0,19.9,0,17.3,0,59.5,0
6/4/2004 1:00,23.5,0,41,0,25.6,0,42,0,17.2,0,46,0,20,0,17.3,0,59.8,0
6/4/2004 1:15,23.5,0,42,0,25.6,0,43,0,16.8,0,47,0,20,0,17,0,60.3,0
6/4/2004 1:30,23.5,0,42,0,25.6,0,43,0,16.8,0,48,0,20.2,0,16.8,0,60.8,0
6/4/2004 1:45,23.5,0,43,0,25.6,0,44,0,17.2,0,49,0,20.1,0,16.5,0,61.3,0
6/4/2004 2:00,23.5,0,43,0,25.6,0,45,0,17.1,0,41,0,20.1,0,16.3,0,61.8,0
6/4/2004 2:15,23.4,0,43,0,25.5,0,45,0,17.7,0,38,0,20.3,0,16.2,0,61.3,0
6/4/2004 2:30,23.4,0,43,0,25.5,0,45,0,17.2,0,40,0,20.2,0,16.2,0,60.8,0
6/4/2004 2:45,23.4,0,42,0,25.5,0,46,0,17.5,0,41,0,20.3,0,16.1,0,60.3,0
6/4/2004 3:00,23.1,0,41,0,25.4,0,46,0,17.5,0,38,0,20.3,0,16.1,0,59.8,0
6/4/2004 3:15,22.9,0,40,0,25.4,0,46,0,17.3,0,38,0,20.4,0,16.1,0,59.5,0
6/4/2004 3:30,22.8,0,40,0,25.4,0,46,0,17.2,0,38,0,20.3,0,16,0,59.3,0
6/4/2004 3:45,22.7,0,40,0,25.3,0,46,0,17.2,0,37,0,20.4,0,16,0,59,0
6/4/2004 4:00,22.5,0,40,0,25.3,0,46,0,17.1,0,39,0,20.4,0,16,0,58.8,0
6/4/2004 4:15,22.4,0,40,0,25.2,0,46,0,16.3,0,42,0,20.5,0,15.9,0,59.8,0
6/4/2004 4:30,22.3,0,41,0,25.2,0,46,0,16.1,0,44,0,20.5,0,15.8,0,60.8,0
6/4/2004 4:45,22.3,0,41,0,25.1,0,46,0,16.5,0,44,0,20.6,0,15.8,0,61.8,0
6/4/2004 5:00,22.2,0,41,0,25.1,0,46,0,15.9,0,45,0,20.5,0,15.7,0,62.8,0
6/4/2004 5:15,22,0,42,0,25,0,46,0,16.8,0,43,0,20.6,0,15.9,0,62.5,0
6/4/2004 5:30,22,0,42,0,25,0,46,0,17.4,0,43,0,20.5,0,16.2,0,62.3,0
6/4/2004 5:45,21.9,0,42,0,25.1,0,46,0,17.6,0,41,0,20.7,0,16.4,0,62,0
6/4/2004 6:00,21.9,0,42,0,25,0,46,0,17.7,0,40,0,20.6,0,16.7,0,61.8,0
6/4/2004 6:15,22,0,42,0,25,0,46,0,17.5,0,39,0,20.7,0,17.1,0,59.8,0
6/4/2004 6:30,22,0,42,0,25.1,0,45,0,18,0,37,0,20.7,0,17.4,0,57.8,0
6/4/2004 6:45,22,0,42,0,24.9,0,39,0,18.5,0,33,0,20.7,0,17.8,0,55.8,0
6/4/2004 7:00,22,0,41,0,24.8,0,39,0,18.7,0,31,0,20.8,0,18.2,0,53.8,0
6/4/2004 7:15,22.3,0,39,0,24.7,0,35,0,19.4,0,31,0,20.9,0,18.8,0,51,0
6/4/2004 7:30,22.4,0,37,0,24.7,0,37,0,19.8,0,31,0,20.9,0,19.3,0,48.3,0
6/4/2004 7:45,22.5,0,37,0,24.7,0,37,0,20.8,0,29,0,20.9,0,19.9,0,45.5,0
6/4/2004 8:00,22.7,0,37,0,24.7,0,34,0,20.5,0,27,0,21,0,20.5,0,42.8,0
6/4/2004 8:15,22.8,0,36,0,24.7,0,34,0,21.7,0,26,0,19.9,0,21,0,43,0
6/4/2004 8:30,22.9,0,35,0,24.8,0,34,0,21.3,0,25,0,19.2,0,21.5,0,43.3,0
6/4/2004 8:45,22.8,0,35,0,24.8,0,34,0,21.2,0,25,0,19.2,0,22,0,43.5,0
6/4/2004 9:00,23,0,34,0,25.3,0,30,0,21.7,0,21,0,19.3,0,22.5,0,43.8,0
6/4/2004 9:15,23.2,0,34,0,25.4,0,29,0,22.7,0,23,0,19.3,0,22.8,0,44,0
6/4/2004 9:30,23.3,0,30,0,25.5,0,27,0,22.7,0,21,0,19.3,0,23,0,44.3,0
6/4/2004 9:45,23.4,0,27,0,25.6,0,23,0,23.3,0,18,0,19.5,0,23.3,0,44.5,0
6/4/2004 10:00,23.6,0,28,0,25.6,0,22,0,23.6,0,16,0,19.5,0,23.6,0,44.8,0
6/4/2004 10:15,23.7,0,30,0,25.6,0,24,0,24.1,0,16,0,19.6,0,23.8,0,43.8,0
6/4/2004 10:30,23.8,0,29,0,25.7,0,23,0,24.3,0,16,0,19.7,0,23.9,0,42.8,0
6/4/2004 10:45,23.9,0,30,0,25.7,0,26,0,24.7,0,16,0,19.9,0,24.1,0,41.8,0
6/4/2004 11:00,24.1,0,30,0,25.9,0,25,0,25.6,0,15,0,19.3,0,24.3,0,40.8,0